Tracking 31027 objects as of 19-Jul-2025
HD Live streaming from Space Station
objects crossing your sky now

DELTA 1 DEB

Track DELTA 1 DEB now!
10-day predictions


NORAD ID: 21492
Int'l Code: 1975-052FM
Perigee: 1,094.1 km
Apogee: 1,185.9 km
Inclination: 99.8 °
Period: 108.0 minutes
Semi major axis: 7510 km
RCS: 0.0109 m2 (small)
Launch date: June 12, 1975
Source: United States (US)
Launch site: AIR FORCE WESTERN TEST RANGE (AFWTR)

Note: This is SATELLITE DEBRIS
Your satellite tracking list
FENGYUN 1C DEB
Track 1 satellite(s)




NASA's NSSDC Master Catalog

Two Line Element Set (TLE):
1 21492U 75052FM  25198.33511167  .00000053  00000-0  19185-3 0  9994
2 21492  99.7878 329.7785 0061120 291.4839  95.3385 13.33694970664098
Source of the keplerian elements: AFSPC